This demonstration page uses our WeatherBlox Daily Observations layout. Learn more.

Left ArrowRight Arrow

34.02893, -84.19858

Hourly Observations for April 16, 2022

Temp ( °F °C ) Dew Point ( °F °C ) Humidity (%) Winds ( mph kmh ) Pressure ( in mb ) Visibility ( mi km ) Precip ( " mm )
12:53 am 00:53 Clear 62 16.7 46 7.8 56 56 SE 7 11 30.04 1017 10 16 0.00 0.00
1:53 am 01:53 Clear 61 16.1 49 9.4 65 65 SSE 8 13 30.01 1016 10 16 0.00 0.00
2:53 am 02:53 Clear 60 15.6 50 10 70 70 SSE 8 13 30.01 1016 10 16 0.00 0.00
3:53 am 03:53 Partly Cloudy 59 15 51 10.6 75 75 S 7 11 29.99 1016 10 16 0.00 0.00
4:46 am 04:46 Cloudy with Thunderstorms 58 14.4 53 11.7 84 84 N 5 7 30.02 1017 7 11 0.04 1.02
4:53 am 04:53 Cloudy with Thunderstorms 57 13.9 54 12.2 90 90 Calm 30.01 1016 6 10 0.06 1.52
5:01 am 05:01 Cloudy with Light Rain 56 13.3 55 12.8 97 97 Calm 30.04 1017 6 10 0.01 0.25
5:30 am 05:30 Cloudy with Light Rain 57 13.9 56 13.3 96 96 VRB 3 6 30.04 1017 6 10 0.07 1.78
5:53 am 05:53 Cloudy with Light Rain 57 13.9 56 13.3 96 96 VRB 3 6 30.03 1017 5 8 0.13 3.30
6:07 am 06:07 Cloudy with Thunderstorms 58 14.4 56 13.3 93 93 Calm 30.06 1018 4 6 0.04 1.02
6:16 am 06:16 Cloudy with Heavy Rain 57 13.9 57 13.9 100 100 VRB 3 6 30.06 1018 3 4 0.10 2.54
6:24 am 06:24 Cloudy with Nearby Thunderstorms 57 13.9 56 13.3 96 96 NNE 3 6 30.07 1018 3 4 0.15 3.81
6:33 am 06:33 Cloudy with Rain 57 13.9 56 13.3 96 96 NNE 5 7 30.07 1018 3 5 0.21 5.33
6:41 am 06:41 Cloudy with Rain 57 13.9 56 13.3 96 96 N 7 11 30.09 1019 3 5 0.25 6.35
6:50 am 06:50 Cloudy with Heavy Rain 55 13 55 13 100 100 N 7 11 30.11 1020 3 4 0.33 8.38
6:53 am 06:53 Cloudy with Heavy Rain 56 13.3 56 13.3 100 100 NNW 10 17 30.10 1019 3 4 0.37 9.40
7:02 am 07:02 Cloudy with Heavy Rain 56 13.3 56 13.3 100 100 NNE 7 11 30.12 1020 2 3 0.13 3.30
7:11 am 07:11 Cloudy with Heavy Rain 56 13.3 56 13.3 100 100 NNE 3 6 30.12 1020 3 4 0.19 4.83
7:18 am 07:18 Cloudy with Heavy Rain 56 13.3 56 13.3 100 100 NNE 5 7 30.11 1020 3 4 0.25 6.35
7:28 am 07:28 Cloudy with Rain 56 13.3 56 13.3 100 100 Calm 30.10 1019 3 4 0.31 7.87
7:53 am 07:53 Cloudy with Light Rain 56 13.3 55 12.8 97 97 VRB 5 7 30.05 1018 4 6 0.38 9.65
8:43 am 08:43 Cloudy 56 13.3 56 13.3 100 100 VRB 3 6 30.09 1019 10 16 0.00 0.00
8:53 am 08:53 Cloudy 57 13.9 56 13.3 96 96 SE 6 9 30.07 1018 10 16 0.00 0.00
9:28 am 09:28 Cloudy 57 13.9 56 13.3 96 96 SSE 6 9 30.08 1018 10 16 0.00 0.00
9:46 am 09:46 Cloudy 57 13.9 56 13.3 96 96 SSE 6 9 30.06 1018 10 16 0.00 0.00
9:53 am 09:53 Cloudy 58 14.4 57 13.9 97 97 SSE 5 7 30.05 1018 10 16 0.00 0.00
10:13 am 10:13 Cloudy 58 14.4 57 13.9 97 97 VRB 3 6 30.06 1018 10 16 0.00 0.00
10:34 am 10:34 Cloudy 59 15 57 13.9 93 93 E 5 7 30.06 1018 10 16 0.00 0.00
10:53 am 10:53 Cloudy 59 15 57 13.9 93 93 Calm 30.06 1018 10 16 0.00 0.00
11:53 am 11:53 Cloudy 61 16.1 58 14.4 90 90 SE 3 6 30.05 1018 10 16 0.00 0.00
12:53 pm 12:53 Cloudy 62 16.7 59 15 90 90 VRB 3 6 30.06 1018 10 16 0.00 0.00
1:53 pm 13:53 Cloudy 64 17.8 60 15.6 87 87 VRB 5 7 30.02 1017 10 16 0.00 0.00
2:53 pm 14:53 Cloudy 66 18.9 60 15.6 81 81 VRB 6 9 30.01 1016 10 16 0.00 0.00
3:51 pm 15:51 Mostly Sunny 66 19 61 16 83 83 Calm 30.02 1017 10 16 0.00 0.00
3:53 pm 15:53 Mostly Sunny 66 18.9 60 15.6 81 81 NNW 3 6 30.02 1017 10 16 0.00 0.00
4:53 pm 16:53 Partly Cloudy 67 19.4 61 16.1 81 81 NNE 5 7 30.00 1016 10 16 0.00 0.00
5:53 pm 17:53 Sunny 66 18.9 60 15.6 81 81 Calm 30.00 1016 10 16 0.00 0.00
6:53 pm 18:53 Mostly Cloudy 66 18.9 61 16.1 84 84 NNW 3 6 30.01 1016 10 16 0.00 0.00
7:53 pm 19:53 Sunny 65 18.3 61 16.1 87 87 NNW 3 6 30.00 1016 10 16 0.00 0.00
8:53 pm 20:53 Clear 63 17.2 61 16.1 93 93 Calm 30.00 1016 9 14 0.00 0.00
9:53 pm 21:53 Clear 63 17.2 61 16.1 93 93 Calm 30.01 1016 8 13 0.00 0.00
10:53 pm 22:53 Clear 62 16.7 60 15.6 93 93 N 6 9 30.00 1016 9 14 0.00 0.00
11:53 pm 23:53 Partly Cloudy 60 15.6 60 15.6 100 100 SSW 3 6 30.03 1017 7 11 0.00 0.00

Powered by AerisWeather